STARLINK-1024 (44729 NORAD) Tracking and Keplerian Element Data

This shows tracking and keplerian element data for the satellite.

Feedback or suggestion? Click here.




ElementValue
Catalog44729
NameSTARLINK-1024
Epoch Orbit1064
Epoch Day18.25002315
Epoch Year2020
RAAN195.8594
Inclination53.0086
Eccentricity0.0001335
Argument of Perigee96.9232
Mean Anonmoly268.1501
Mean Motion15.44299773
Decay Rate-0.00078656
L11 44729U 19074S 20018.25002315 -.00078656 00000-0 -16896-2 0 9992
L22 44729 53.0086 195.8594 0001335 96.9232 268.1501 15.44299773 10649

Live tracking and technical data element details for STARLINK-1024 (NORAD 44729). STARLINK-1024 can be tracked NOW for your location showing map with azimuth and elevation plus other details from your city location.

Track the satellite on the map from your city or location and see movement details for azimuth, elevation, latitude, longitude, range, height, and movement on the map or in text.







IsCatalogInMostPopularTable: catalog: 44729, numindb: 8
Update: records affected: 1



GetName: 44729 STARLINK-1024

Hit Count: updated at: Sat, 18 Jan 2020 16:59:14 GMT